Change the Weather History Date:

Tuesday, March 12, 2013

  Actual Average (KEAU) Record (KEAU)
Temperature  
Mean Temperature 26 °F 30 °F  
Max Temperature 30 °F 39 °F 67 °F (1990)
Min Temperature 21 °F 20 °F -11 °F (1956)
Degree Days  
Heating Degree Days 40 36  
Month to date heating degree days 455  
Since 1 July heating degree days 6476  
Cooling Degree Days 0 0  
Month to date cooling degree days 0  
Year to date cooling degree days 0  
Moisture  
Dew Point 17 °F    
Average Humidity 66    
Maximum Humidity 86    
Minimum Humidity 47    
Precipitation  
Precipitation 0.00 in 0.05 in 0.60 in (1901)
Month to date precipitation 0.52  
Year to date precipitation 2.22  
Snow  
Snow 0.00 in 0.30 in 6.00 in (1901)
Month to date snowfall 3.8  
Since 1 July snowfall 40.1  
Snow Depth -    
Sea Level Pressure  
Sea Level Pressure 29.92 in    
Wind  
Wind Speed 12 mph (WNW)    
Max Wind Speed 20 mph    
Max Gust Speed 25 mph    
Visibility 9 miles    
Events Snow    
T = Trace of Precipitation, MM = Missing Value Source: NWS Daily Summary

Daily Weather History Graph

Daily Weather History Graph

Search for Another Location

Airport or City:

Trip Planner

Search our weather history database for the weather conditions in past years. The results will help you decide how hot, cold, wet, or windy it might be!

Date:

Astronomy

Mar. 12, 2013 Rise Set
Actual Time 7:24 AM CDT 7:09 PM CDT
Civil Twilight 6:55 AM CDT 7:39 PM CDT
Nautical Twilight 6:21 AM CDT 8:13 PM CDT
Astronomical Twilight 5:47 AM CDT 8:47 PM CDT
Moon 7:27 AM CDT (3/12) 8:31 PM CDT (3/12)
Length of Visible Light 12h 43m
Length of Day
11h 45m
New Moon, 1% of the Moon is Illuminated
Mar 12
New Moon
Mar 19
First Quarter
Mar 27
Full
Apr 2
Last Quarter
Apr 10
New

Hourly Weather History & Observations

Time (CDT) Temp. Windchill Dew Point Humidity Pressure Visibility Wind Dir Wind Speed Gust Speed Precip Events Conditions
12:15 AM 28.4 °F 19.7 °F 23.0 °F 80% 29.79 in 4.0 mi West 9.2 mph - N/A Snow Light Snow
12:35 AM 28.4 °F 20.4 °F 23.0 °F 80% 29.79 in 10.0 mi West 8.1 mph - N/A   Mostly Cloudy
12:55 AM 26.6 °F 17.5 °F 21.2 °F 80% 29.79 in 10.0 mi West 9.2 mph - N/A   Clear
1:15 AM 26.6 °F 16.8 °F 21.2 °F 80% 29.79 in 10.0 mi West 10.4 mph - N/A   Scattered Clouds
1:35 AM 26.6 °F 16.8 °F 21.2 °F 80% 29.79 in 10.0 mi West 10.4 mph - N/A   Mostly Cloudy
1:55 AM 26.6 °F 16.2 °F 21.2 °F 80% 29.80 in 10.0 mi West 11.5 mph 16.1 mph N/A   Overcast
2:15 AM 26.6 °F 17.5 °F 21.2 °F 80% 29.80 in 10.0 mi West 9.2 mph - N/A   Overcast
2:55 AM 26.6 °F 16.8 °F 19.4 °F 74% 29.80 in 10.0 mi West 10.4 mph - N/A   Overcast
3:15 AM 24.8 °F 14.6 °F 17.6 °F 74% 29.80 in 10.0 mi West 10.4 mph - N/A   Mostly Cloudy
3:35 AM 23.0 °F 14.7 °F 17.6 °F 80% 29.80 in 10.0 mi West 6.9 mph - N/A   Scattered Clouds
3:55 AM 23.0 °F 14.7 °F 17.6 °F 80% 29.80 in 10.0 mi West 6.9 mph - N/A   Clear
4:15 AM 21.2 °F 12.6 °F 17.6 °F 86% 29.80 in 10.0 mi WSW 6.9 mph - N/A   Mostly Cloudy
9:55 AM 24.8 °F 15.3 °F 17.6 °F 74% 29.86 in 10.0 mi West 9.2 mph - N/A   Scattered Clouds
10:15 AM 26.6 °F 16.8 °F 17.6 °F 69% 29.86 in 10.0 mi West 10.4 mph - N/A   Scattered Clouds
10:35 AM 26.6 °F 16.8 °F 17.6 °F 69% 29.86 in 10.0 mi WNW 10.4 mph - N/A   Mostly Cloudy
10:55 AM 26.6 °F 15.7 °F 17.6 °F 69% 29.87 in 10.0 mi West 12.7 mph 18.4 mph N/A   Overcast
11:15 AM 26.6 °F 15.2 °F 17.6 °F 69% 29.87 in 10.0 mi WNW 13.8 mph - N/A   Overcast
11:35 AM 28.4 °F 17.0 °F 19.4 °F 69% 29.88 in 4.0 mi West 15.0 mph - N/A Snow Light Snow
11:55 AM 26.6 °F 15.7 °F 19.4 °F 74% 29.88 in 5.0 mi West 12.7 mph - N/A Snow Light Snow
12:15 PM 28.4 °F 18.0 °F 19.4 °F 69% 29.88 in 7.0 mi West 12.7 mph 20.7 mph N/A Snow Light Snow
12:35 PM 28.4 °F 18.0 °F 17.6 °F 64% 29.88 in 10.0 mi West 12.7 mph 20.7 mph N/A   Mostly Cloudy
12:55 PM 30.2 °F 18.9 °F 17.6 °F 60% 29.88 in 10.0 mi West 16.1 mph 20.7 mph N/A   Scattered Clouds
1:15 PM 30.2 °F 18.1 °F 15.8 °F 55% 29.89 in 10.0 mi West 18.4 mph - N/A   Clear
1:35 PM 30.2 °F 18.5 °F 15.8 °F 55% 29.89 in 10.0 mi West 17.3 mph 23.0 mph N/A   Clear
1:55 PM 30.2 °F 18.5 °F 15.8 °F 55% 29.89 in 10.0 mi West 17.3 mph - N/A   Scattered Clouds
2:15 PM 30.2 °F 18.5 °F 14.0 °F 51% 29.89 in 10.0 mi West 17.3 mph 24.2 mph N/A   Mostly Cloudy
2:35 PM 30.2 °F 18.5 °F 14.0 °F 51% 29.90 in 10.0 mi West 17.3 mph 24.2 mph N/A   Mostly Cloudy
2:55 PM 30.2 °F 17.8 °F 14.0 °F 51% 29.90 in 10.0 mi West 19.6 mph 24.2 mph N/A   Mostly Cloudy
3:15 PM 28.4 °F 15.8 °F 14.0 °F 55% 29.91 in 10.0 mi West 18.4 mph 24.2 mph N/A   Overcast
3:35 PM 30.2 °F 19.3 °F 14.0 °F 51% 29.91 in 10.0 mi West 15.0 mph 24.2 mph N/A   Overcast
3:55 PM 28.4 °F 16.6 °F 14.0 °F 55% 29.91 in 10.0 mi WNW 16.1 mph 24.2 mph N/A   Overcast
4:15 PM 30.2 °F 17.8 °F 14.0 °F 51% 29.92 in 10.0 mi West 19.6 mph 24.2 mph N/A   Overcast
4:35 PM 30.2 °F 17.8 °F 14.0 °F 51% 29.92 in 10.0 mi West 19.6 mph 25.3 mph N/A   Mostly Cloudy
4:55 PM 30.2 °F 18.9 °F 14.0 °F 51% 29.93 in 10.0 mi WNW 16.1 mph 21.9 mph N/A   Scattered Clouds
5:15 PM 28.4 °F 18.0 °F 14.0 °F 55% 29.93 in 10.0 mi West 12.7 mph 19.6 mph N/A   Mostly Cloudy
5:35 PM 28.4 °F 16.2 °F 14.0 °F 55% 29.94 in 10.0 mi West 17.3 mph 20.7 mph N/A   Overcast
5:55 PM 28.4 °F 17.0 °F 12.2 °F 51% 29.95 in 10.0 mi WNW 15.0 mph 18.4 mph N/A   Overcast
6:15 PM 28.4 °F 16.6 °F 10.4 °F 47% 29.96 in 10.0 mi WNW 16.1 mph 19.6 mph N/A   Mostly Cloudy
6:35 PM 28.4 °F 17.5 °F 10.4 °F 47% 29.97 in 10.0 mi WNW 13.8 mph - N/A   Mostly Cloudy
6:55 PM 28.4 °F 18.0 °F 10.4 °F 47% 29.98 in 10.0 mi WNW 12.7 mph - N/A   Overcast
7:15 PM 28.4 °F 17.5 °F 10.4 °F 47% 29.98 in 10.0 mi NW 13.8 mph 18.4 mph N/A   Overcast
7:35 PM 28.4 °F 16.6 °F 12.2 °F 51% 30.00 in 10.0 mi NW 16.1 mph 23.0 mph N/A   Overcast
7:55 PM 26.6 °F 14.3 °F 14.0 °F 59% 30.01 in 10.0 mi NW 16.1 mph 24.2 mph N/A   Overcast
8:15 PM 26.6 °F 14.3 °F 17.6 °F 69% 30.03 in 10.0 mi NW 16.1 mph 20.7 mph N/A   Mostly Cloudy
8:35 PM 26.6 °F 14.3 °F 17.6 °F 69% 30.04 in 10.0 mi NW 16.1 mph 20.7 mph N/A Snow Light Snow
8:55 PM 24.8 °F 14.0 °F 19.4 °F 80% 30.05 in 4.0 mi NNW 11.5 mph - N/A Snow Light Snow
9:15 PM 23.0 °F 10.6 °F 19.4 °F 86% 30.05 in 4.0 mi NNW 13.8 mph - N/A Snow Light Snow
9:35 PM 23.0 °F 10.6 °F 19.4 °F 86% 30.07 in 2.0 mi NNW 13.8 mph - N/A Snow Light Snow
9:55 PM 23.0 °F 11.7 °F 17.6 °F 80% 30.08 in 10.0 mi NNW 11.5 mph - N/A   Overcast
10:15 PM 23.0 °F 11.1 °F 15.8 °F 74% 30.09 in 10.0 mi NW 12.7 mph - N/A Snow Light Snow
10:35 PM 23.0 °F 13.1 °F 15.8 °F 74% 30.09 in 7.0 mi WNW 9.2 mph - N/A Snow Light Snow
10:55 PM 23.0 °F 12.4 °F 15.8 °F 74% 30.10 in 7.0 mi NW 10.4 mph - N/A Snow Light Snow
11:15 PM 23.0 °F 13.1 °F 15.8 °F 74% 30.10 in 7.0 mi NW 9.2 mph - N/A Snow Light Snow
11:35 PM 23.0 °F 11.1 °F 15.8 °F 74% 30.11 in 10.0 mi NW 12.7 mph - N/A Snow Light Snow
11:55 PM 23.0 °F 8.7 °F 14.0 °F 68% 30.12 in 7.0 mi NNW 18.4 mph - N/A   Overcast